Погода в Семипалатинске

Хотите узнать прогноз погоды в Семипалатинске? Тогда Вам сюда: Погода в Семипалатинске

Поиск расширенной информации на нашем сайте:

Полезная информация:

Новости сайта



02.01.2020
Опубликован Долгосрочный прогноз погоды по городам России и ближнего зарубежья на январь 2020 года.
Карты: Прогноз на январь и февраль 2020 года, Сравнение прогнозируемой аномалии приземной температуры воздуха на январь 2020 года по разным моделям.




Погода в Семипалатинске - сегодня

Время (UTC), дата Ветер
(°,м/с) 
Видим.   Явления Облачность Т
(°С)
Тd
(°С)
f(%) Тe
(°С)
Pmin
(гПа)
dP
(гПа)
Po
(мм)
O2
(г/м3)
Тmin Tmax R s Состояние
почвы
09 16.01.21 160 (Ю) 10 км    9/0 верхняя 
[Ci fib]
-11.4 -16.1 68 -17  1032.7  -3  755  319           
12 16.01.21 140 (ЮВ) н/о    8/0 верхняя 
[Ci fib]
-12.4 -16.7 70 -17  1029.9  -2.8  753  319           
15 16.01.21 140 (ЮВ) н/о    ясно 
-11.1 -16.4 65 -18  1027  -2.7  751  317    -10.6       
18 16.01.21 180 (Ю) н/о    ясно 
-9.8 -15.7 62 -16  1023.6  -3.2  749  314    -10.6       
21 16.01.21 180 (Ю) н/о    ясно 
-9.3 -15 63 -16  1023.1  -0.5  748  313           
00 17.01.21 160 (Ю) н/о    ясно 
-8.5 -14.4 62 -14  1020.2  -2.7  746  312           
03 17.01.21 160 (Ю) 10 км    6/0 средняя 
[Ac trans]
-10.4 -14.8 70 -12  1019.3  -1.1  745  314        19  равномерный
сухой снег
100% 
06 17.01.21 230 (ЮЗ) 10 км    9/0 верхняя 
[Ci fib]
-4.5 -12.6 53 -6  1021.1  2.3  747  307  -11.1         
09 17.01.21 250 (З) 10 км    6/0 средняя 
[Ac trans]
-4 -9.4 66 -5  1023.3  2.2  749  307           
12 17.01.21 тихо ()   н/о    9/0 средняя 
[Ac trans]
-5 -7.5 83 -5  1024.9  1.5  750  309           
15 17.01.21 тихо ()   н/о    10/0 средняя 
[Ac und]
-6.3 -7.8 89 -6  1023.9  -1.1  749  310    -3.2       
18 17.01.21 160 (Ю) н/о    10/10 1000 м 
[Sc]
-7 -9.5 82 -11  1022.3  -1.6  748  310    -3.2       
21 17.01.21 160 (Ю) н/о    4/4 1000 м 
[Sc]
-11.9 -15.9 72 -14  1020.8  -2  746  316           
00 18.01.21 140 (ЮВ) н/о    ясно 
-13.1 -16.6 75 -15  1018.7  -2.1  745  317           
03 18.01.21 110 (В) 10 км    9/0 средняя, верхняя 
[Ac trans|Ci fib]
-11.1 -15 73 -13  1017.9  -0.6  744  314        19  равномерный
сухой снег
100% 
06 18.01.21 090 (В) 10 км    6/0 верхняя 
[Ci fib]
-7 -12.7 64 -11  1017  -0.5  744  309  -13.1         
09 18.01.21 110 (В) 10 км    3/0 средняя 
[Ac trans]
-4.5 -11 60 -6  1015.3  -1.4  743  305           
12 18.01.21 тихо ()   н/о    9/3 1000 м средняя, верхняя 
[Sc|Ac trans|Ci fib]
-8 -12.6 69 -8  1017  1.3  744  310           
15 18.01.21 тихо ()   н/о    9/4 1000 м средняя 
[Sc|Ac trans]
-11.2 -14.6 76 -11  1018.1  0.8  745  314    -4.5       
18 18.01.21 тихо ()   н/о    9/5 1000 м средняя 
[Sc|Ac trans]
-13.2 -15.9 80 -13  1019.6  1.2  745  317    -4.5       
21 18.01.21 тихо ()   н/о    9/6 1000 м средняя 
[Sc|Ac trans]
-14 -16.6 81 -14  1020.9  1.2  746  318           
00 19.01.21 тихо ()   н/о    9/3 1000 м средняя 
[Sc|Ac trans]
-14.1 -16.4 83 -14  1021.4  0.5  747  319           
03 19.01.21 тихо ()   10 км    9/3 1000 м средняя, верхняя 
[Sc|Ac trans|Ci fib]
-16.2 -18.6 82 -16  1022.9  1.3  748  322        18  равномерный
сухой снег
100% 
06 19.01.21 тихо ()   10 км    8/4 1000 м средняя, верхняя 
[Sc|Ac trans|Ci fib]
-10.3 -13.1 80 -10  1023.2  0.8  748  315    -16.2       
09 19.01.21 тихо ()   10 км    6/0 средняя, верхняя 
[Ac trans|Ci fib]
-6.8 -11.9 67 -7  1021.6  -1.2  747  310           
Время (UTC), дата Ветер
(°,м/с) 
Видим.   Явления Облачность Т
(°С)
Тd
(°С)
f(%) Тe
(°С)
Pmin
(гПа)
dP
(гПа)
Po
(мм)
O2
(г/м3)
Тmin Tmax R s Состояние
почвы

Для получения пояснительной информации подведите курсор к названию столбца.

ПОГОДА в Семипалатинске - архив

Всё, что Вы хотите узнать о погоде в Семипалатинске - удобно и подробно!

Выберите нужную дату (начиная с 1 января 2019* года) и нажмите кнопку "Найти".
Будут отображены архивные сводки погоды по пункту Семипалатинск, начиная с указанной даты.


Отображать данные в формате CSV (для использования в таблицах Excel)


Внимание! Наш архив погоды предназначен исключительно для личного некоммерческого использования в познавательных целях. Если Вам необходимы официальные справки о состоянии погоды (для производственных, юридических, коммерческих и т.п. целей), обращайтесь в органы Росгидромета.

*Примечание: данная дата относится к архиву по метеостанциям СССР (Россия, СНГ, Балтия).
Архив по метеостанциям Зарубежной Европы и Азии (кроме Китая) хранится 10 дней, по другим регионам земного шара (Китай, Африка, Америка, Австралия, Океания) - 1 день.

Семипалатинск - район местоположения метеостанции


Название, широта, долгота, высота метеостанции:
Семипалатинск 50.4°ш. 80.3°д. 196 м над ур. моря [Казахстан]

Дополнительная информация

В oтличие oт бoльшинства пoгoдных сайтoв мы публикуем пoдрoбную метеoинфoрмацию в детальнoм прoфессиoнальнoм фoрмате.

Характеристики температуры и влажнoсти вoздуха измеряются на высoте 2 м в тени вдали oт зданий и деревьев.
Скoрoсть ветра измеряется на высoте 10 м (на урoвне рoста челoвека скoрoсть ветра ниже в 1.5-2 раза). Если метеoстанция нахoдится в гoрoде или в лесу, тo скoрoсть ветра занижена на 2-4 м/с пo сравнению с oткрытым местoм. Скoрoсть ветра над акватoриями крупных рек и oзёр, а также на вершинах хoлмoв на 2-5 м/с выше, чем в oбычных услoвиях.
Атмoсфернoе давление в разных тoчках местнoсти мoжет значительнo oтличаться oт давления на метеoстанции, в зависимoсти oт услoвий рельефа (при пoдъёме на 10 м давление пoнижается примернo на 1 мм рт.ст.).